A/2019 T1

Japanese version
Home page
Updated on November 9, 2019

---------------------------------------------------------------------

* Profile

Discovery Date October 8, 2019
Magnitude 20.7 mag
Discoverer Pan-STARRS 2 (Haleakala)

* Orbital Elements

Epoch 2021 Jan. 26.0 TT = JDT 2459240.5
T 2021 Jan. 14.26663 TT                                 Williams
q   4.2816001            (2000.0)            P               Q
z  +0.0261409      Peri.   91.03131     +0.04424258     -0.99360133
 +/-0.0000000      Node     6.95382     -0.81058037     -0.09650503
e   0.8880751      Incl.  120.86968     +0.58395382     -0.05867861
H   13.0
From 43 observations 2017 Sept. 16-2019 Oct. 24, mean residual 0".3.

* Magnitudes Graph

        H = 13.0  G = 0.15

---------------------------------------------------------------------

The orbital elements are published on M.P.E.C. 2019-V116.
The magnitudes graphs are made with Comet for Windows.

---------------------------------------------------------------------

Copyright(C) Seiichi Yoshida (comet@aerith.net). All rights reserved.